Date,TemperatureHighF,TemperatureAvgF,TemperatureLowF,DewpointHighF,DewpointAvgF,DewpointLowF,HumidityHigh,HumidityAvg,HumidityLow,PressureMaxIn,PressureMinIn,WindSpeedMaxMPH,WindSpeedAvgMPH,GustSpeedMaxMPH,PrecipitationSumIn
2012-1-1,65.0,56.2,40.0,60.0,43.6,28.0,93,65,40,30.32,30.00,12,5,18,0.01
2012-1-2,46.0,36.9,27.0,28.0,18.8,12.0,62,48,33,30.36,30.20,14,4,18,0.00
2012-1-3,38.0,27.7,20.0,20.0,15.5,11.0,78,61,43,30.54,30.34,12,2,16,0.00
2012-1-4,54.0,36.9,23.0,39.0,25.9,16.0,94,67,33,30.37,30.15,11,2,13,0.00
2012-1-5,61.0,42.7,31.0,46.0,34.6,31.0,100,76,39,30.25,30.11,4,0,6,0.00
2012-1-6,69.0,50.9,34.0,52.0,42.2,32.0,92,74,48,30.16,29.99,6,1,8,0.00
2012-1-7,59.0,56.6,55.0,58.0,55.4,52.0,100,96,87,30.11,29.99,6,1,8,0.63
2012-1-8,58.0,52.6,49.0,58.0,52.6,49.0,100,100,100,30.17,30.10,5,1,6,0.63
2012-1-9,60.0,56.0,53.0,60.0,56.0,53.0,100,100,100,30.16,30.07,7,0,7,0.26
2012-1-10,58.0,55.0,52.0,58.0,55.0,52.0,100,100,99,30.08,29.72,8,2,12,0.09
2012-1-11,58.0,52.8,48.0,58.0,52.7,48.0,100,100,96,29.72,29.51,9,3,11,0.28
2012-1-12,49.0,39.8,28.0,49.0,38.3,21.0,100,95,76,29.99,29.64,15,4,19,1.53
2012-1-13,38.0,29.8,26.0,26.0,22.9,19.0,88,76,60,30.21,29.99,9,3,13,0.15
2012-1-14,56.0,39.0,23.0,33.0,27.0,21.0,95,66,37,30.27,30.02,12,3,16,0.00
2012-1-15,53.0,41.0,29.0,31.0,28.8,25.0,86,63,39,30.48,30.27,4,0,11,0.00
2012-1-16,59.0,53.3,42.0,46.0,37.5,29.0,62,55,45,30.36,30.16,11,4,15,0.00
2012-1-17,63.0,55.9,39.0,62.0,53.5,36.0,100,92,59,30.16,29.88,16,7,16,1.29
2012-1-18,42.0,35.0,30.0,35.0,29.1,26.0,90,79,62,30.27,30.11,12,3,12,1.29
2012-1-19,57.0,44.4,30.0,39.0,32.7,28.0,93,67,36,30.12,29.95,8,1,11,0.00
2012-1-20,65.0,56.7,50.0,65.0,53.3,39.0,100,89,58,30.00,29.86,9,1,9,0.02
2012-1-21,66.0,50.8,40.0,64.0,49.5,39.0,100,96,80,30.07,29.82,12,6,12,0.02
2012-1-22,60.0,53.6,42.0,59.0,53.1,42.0,100,98,94,30.07,29.83,9,5,15,0.72
2012-1-23,66.0,58.0,43.0,63.0,51.0,39.0,100,80,53,30.09,29.74,13,3,13,2.88
2012-1-24,64.0,47.8,35.0,46.0,37.8,34.0,100,72,40,30.25,30.08,8,1,9,2.88
2012-1-25,73.0,57.1,42.0,54.0,44.7,35.0,83,64,44,30.23,29.96,8,2,12,0.00
2012-1-26,63.0,60.5,53.0,62.0,59.0,50.0,100,95,73,29.96,29.63,10,4,12,1.34
2012-1-27,54.0,46.1,39.0,50.0,41.4,37.0,98,85,64,30.06,29.75,10,3,10,1.34
2012-1-28,58.0,44.2,32.0,44.0,33.3,22.0,100,70,34,30.36,30.04,14,3,16,0.02
2012-1-29,57.0,39.5,25.0,31.0,25.1,21.0,89,60,29,30.43,30.32,8,1,8,0.00
2012-1-30,64.0,47.8,34.0,31.0,27.8,24.0,73,49,24,30.40,30.28,10,1,12,0.00
2012-1-31,67.0,56.0,46.0,47.0,34.5,27.0,70,45,28,30.32,30.19,10,1,12,0.01
2012-2-1,59.0,57.2,55.0,59.0,56.2,47.0,100,97,69,30.20,30.04,5,0,7,0.01
2012-2-2,68.0,55.9,49.0,55.0,45.3,37.0,100,72,40,30.29,30.09,9,3,13,1.13
2012-2-3,61.0,55.5,43.0,49.0,40.7,34.0,90,58,45,30.30,30.20,10,3,13,0.09
2012-2-4,63.0,56.5,51.0,59.0,53.9,48.0,100,91,78,30.20,30.01,8,3,13,0.09
2012-2-5,63.0,54.9,46.0,58.0,51.0,43.0,100,88,66,30.18,30.04,8,2,10,0.72
2012-2-6,56.0,47.6,41.0,49.0,42.2,37.0,100,83,60,30.24,30.16,8,2,10,0.07
2012-2-7,61.0,47.6,36.0,42.0,37.0,34.0,95,69,38,30.24,30.15,8,2,9,0.00
2012-2-8,53.0,46.7,39.0,41.0,38.0,35.0,85,72,58,30.31,30.18,9,4,12,0.00
2012-2-9,48.0,39.4,34.0,35.0,32.4,30.0,89,77,60,30.32,30.18,7,1,7,0.00
2012-2-10,50.0,38.2,31.0,38.0,33.8,29.0,97,85,58,30.18,30.01,4,0,6,0.02
2012-2-11,39.0,31.7,24.0,38.0,21.9,12.0,98,69,42,30.45,30.00,16,8,21,0.03
2012-2-12,42.0,28.9,18.0,19.0,15.6,11.0,75,58,39,30.49,30.32,9,1,15,0.01
2012-2-13,47.0,34.3,21.0,36.0,24.5,16.0,93,69,45,30.33,30.01,5,0,8,0.06
2012-2-14,49.0,43.5,38.0,47.0,42.7,36.0,100,97,93,30.12,29.93,6,1,7,0.09
2012-2-15,62.0,51.4,36.0,51.0,45.0,36.0,100,81,57,30.20,30.03,10,1,10,0.09
2012-2-16,66.0,55.8,48.0,58.0,50.6,44.0,100,84,56,30.17,30.03,10,3,10,0.14
2012-2-17,65.0,52.0,42.0,46.0,41.6,37.0,94,70,42,30.18,30.06,10,3,10,0.21
2012-2-18,60.0,51.2,39.0,48.0,41.5,35.0,88,71,51,30.08,29.82,8,1,9,0.01
2012-2-19,50.0,42.5,32.0,46.0,40.5,30.0,100,93,80,30.14,29.76,14,7,14,0.01
2012-2-20,59.0,43.3,28.0,39.0,34.0,28.0,100,74,40,30.23,30.09,8,2,11,0.66
2012-2-21,69.0,55.4,43.0,48.0,37.8,27.0,82,56,22,30.15,29.96,13,6,15,0.02
2012-2-22,68.0,55.7,43.0,56.0,48.6,30.0,99,79,55,29.98,29.58,16,3,16,0.19
2012-2-23,78.0,66.4,54.0,62.0,57.4,54.0,100,76,47,29.63,29.42,16,6,19,0.19
2012-2-24,70.0,55.1,33.0,63.0,39.0,26.0,81,56,35,30.19,29.55,13,6,21,0.01
2012-2-25,57.0,42.5,29.0,35.0,25.3,18.0,95,57,22,30.32,30.19,14,2,16,0.00
2012-2-26,64.0,50.2,33.0,33.0,27.1,21.0,69,42,26,30.38,30.22,9,1,12,0.00
2012-2-27,71.0,56.9,48.0,47.0,41.2,31.0,76,57,41,30.40,30.30,4,0,7,0.00
2012-2-28,72.0,58.3,43.0,61.0,49.3,39.0,99,74,44,30.34,30.10,8,2,9,0.11
2012-2-29,73.0,66.7,61.0,65.0,63.2,61.0,100,89,69,30.11,29.83,17,8,23,0.11
2012-3-1,76.0,63.4,44.0,62.0,45.6,36.0,98,57,23,29.99,29.80,9,1,9,0.05
2012-3-2,79.0,70.3,59.0,65.0,61.6,46.0,91,75,52,29.80,29.59,16,9,27,0.07
2012-3-3,60.0,49.5,40.0,46.0,33.0,28.0,80,55,30,29.95,29.73,11,3,16,0.07
2012-3-4,57.0,45.9,30.0,33.0,28.0,24.0,84,52,31,30.06,29.92,10,2,15,0.00
2012-3-5,58.0,49.3,37.0,34.0,29.1,24.0,66,47,30,30.45,29.96,10,3,14,0.00
2012-3-6,67.0,53.1,38.0,33.0,28.9,25.0,64,42,22,30.48,30.34,9,2,11,0.00
2012-3-7,72.0,61.5,52.0,51.0,46.4,33.0,78,58,44,30.42,30.26,11,4,14,0.00
2012-3-8,75.0,62.7,50.0,61.0,54.0,49.0,99,75,55,30.27,30.06,13,5,19,1.12
2012-3-9,60.0,48.6,41.0,50.0,37.5,30.0,100,69,37,30.42,30.23,14,6,20,1.27
2012-3-10,70.0,52.8,38.0,38.0,32.8,-99.9,67,50,31,30.43,30.28,9,1,11,0.24
2012-3-11,69.0,60.2,50.0,54.0,44.9,34.0,67,57,51,30.41,30.22,9,3,11,0.00
2012-3-12,69.0,64.5,62.0,62.0,58.4,52.0,90,81,66,30.25,30.13,13,5,13,0.00
2012-3-13,82.0,69.9,60.0,65.0,60.0,55.0,94,74,42,30.23,30.12,7,2,9,0.02
2012-3-14,84.0,68.5,57.0,65.0,59.6,56.0,98,76,40,30.26,30.14,5,1,8,0.00
2012-3-15,86.0,70.1,59.0,66.0,60.9,56.0,98,77,39,30.28,30.10,11,2,15,1.13
2012-3-16,80.0,68.2,59.0,63.0,60.4,57.0,97,78,52,30.21,30.11,8,2,16,1.13
2012-3-17,84.0,71.6,59.0,64.0,58.9,55.0,94,67,39,30.22,30.09,7,1,7,0.00
2012-3-18,84.0,70.4,59.0,59.0,52.6,45.0,87,57,27,30.25,30.11,7,1,8,0.00
2012-3-19,84.0,71.8,61.0,59.0,55.4,51.0,77,58,37,30.18,30.03,8,1,15,0.00
2012-3-20,85.0,73.5,64.0,60.0,55.1,-99.9,76,55,37,30.10,29.97,8,2,10,0.00
2012-3-21,80.0,72.7,65.0,62.0,57.9,54.0,78,60,45,30.12,30.02,7,2,11,0.00
2012-3-22,74.0,66.8,63.0,65.0,60.2,-99.9,97,82,64,30.14,30.02,7,-5,10,0.34
2012-3-23,80.0,68.3,63.0,68.0,60.2,48.0,100,79,45,30.06,29.85,11,3,12,0.34
2012-3-24,70.0,58.3,49.0,55.0,50.8,48.0,95,78,49,29.95,29.83,11,2,12,0.72
2012-3-25,76.0,59.5,46.0,59.0,51.6,46.0,100,79,45,30.01,29.91,9,1,10,0.17
2012-3-26,81.0,65.7,50.0,59.0,53.0,49.0,96,67,39,30.10,30.01,10,3,11,0.00
2012-3-27,83.0,67.9,50.0,56.0,51.1,46.0,87,57,33,30.16,30.07,11,2,11,0.00
2012-3-28,82.0,69.8,60.0,61.0,55.1,52.0,85,62,38,30.16,29.99,8,2,9,0.00
2012-3-29,83.0,68.4,57.0,63.0,57.8,55.0,97,72,42,30.04,29.90,5,0,7,0.00
2012-3-30,73.0,65.1,60.0,68.0,61.8,57.0,96,89,72,29.96,29.82,7,1,9,0.13
2012-3-31,81.0,66.5,59.0,68.0,62.5,58.0,100,88,54,29.91,29.80,7,1,7,0.13
2012-4-1,84.0,68.9,55.0,65.0,60.4,55.0,100,78,48,29.89,29.77,7,2,9,0.03
2012-4-2,86.0,71.7,60.0,68.0,62.8,59.0,98,76,46,29.90,29.77,6,1,7,0.01
2012-4-3,84.0,70.6,58.0,67.0,60.9,57.0,97,74,45,29.98,29.86,6,1,9,0.00
2012-4-4,84.0,68.8,60.0,65.0,61.7,59.0,97,81,45,29.90,29.70,8,1,9,0.13
2012-4-5,76.0,64.5,57.0,69.0,59.6,54.0,100,86,52,29.79,29.64,8,2,10,0.13
2012-4-6,70.0,59.3,49.0,55.0,46.8,42.0,91,66,43,30.10,29.80,10,6,15,0.28
2012-4-7,76.0,60.2,42.0,56.0,48.5,40.0,94,68,45,30.24,30.09,10,1,10,0.00
2012-4-8,77.0,62.9,50.0,59.0,51.4,45.0,98,70,41,30.23,30.13,8,1,13,0.00
2012-4-9,76.0,61.0,47.0,48.0,43.4,39.0,80,56,30,30.17,30.04,6,1,8,0.00
2012-4-10,75.0,59.1,46.0,56.0,46.5,40.0,95,66,35,30.08,30.00,7,1,13,0.00
2012-4-11,67.0,53.5,37.0,43.0,35.0,31.0,89,53,27,30.18,30.08,10,3,13,0.00
2012-4-12,67.0,51.5,36.0,41.0,36.6,31.0,84,59,36,30.25,30.11,6,0,6,0.00
2012-4-13,75.0,59.6,42.0,48.0,43.9,38.0,91,60,33,30.19,30.11,6,0,5,0.00
2012-4-14,81.0,67.9,57.0,58.0,51.0,-99.9,71,57,45,30.20,30.06,9,2,13,0.00
2012-4-15,81.0,70.4,61.0,64.0,60.1,55.0,87,71,54,30.13,29.99,9,3,13,0.00
2012-4-16,83.0,70.7,63.0,67.0,62.1,59.0,94,75,49,30.20,30.01,9,4,12,0.27
2012-4-17,65.0,59.1,55.0,61.0,56.5,52.0,97,91,81,30.25,30.10,10,4,11,0.27
2012-4-18,76.0,63.0,53.0,57.0,53.0,48.0,94,72,47,30.13,30.01,11,4,16,0.46
2012-4-19,78.0,64.6,50.0,59.0,53.1,47.0,94,69,46,30.04,29.91,7,1,7,0.01
2012-4-20,77.0,65.7,58.0,63.0,58.7,55.0,96,80,50,29.93,29.77,8,1,8,0.00
2012-4-21,67.0,58.0,50.0,60.0,53.8,47.0,96,86,67,29.88,29.78,11,5,14,0.00
2012-4-22,67.0,54.4,44.0,48.0,44.7,40.0,95,72,47,29.90,29.77,13,5,19,0.00
2012-4-23,63.0,51.2,41.0,42.0,35.7,29.0,85,59,29,29.95,29.87,14,5,27,0.00
2012-4-24,71.0,56.3,38.0,47.0,42.3,34.0,93,63,38,29.97,29.85,10,2,13,0.00
2012-4-25,83.0,68.5,52.0,63.0,55.3,46.0,86,64,47,29.90,29.79,11,3,13,0.00
2012-4-26,80.0,72.1,66.0,66.0,61.7,57.0,89,70,60,29.94,29.85,12,4,12,0.00
2012-4-27,81.0,71.2,64.0,71.0,65.8,61.0,96,84,60,30.03,29.93,5,1,7,0.54
2012-4-28,83.0,70.6,61.0,65.0,60.8,-99.9,99,76,44,30.09,29.98,9,2,13,0.54
2012-4-29,86.0,73.5,61.0,67.0,61.0,57.0,94,68,39,30.13,30.05,7,1,9,0.00
2012-4-30,87.0,73.9,60.0,67.0,62.2,58.0,95,70,45,30.14,30.03,7,1,11,0.00
2012-5-1,89.0,75.6,62.0,69.0,63.4,60.0,94,69,43,30.10,29.98,9,2,11,0.00
2012-5-2,89.0,77.3,66.0,68.0,65.0,63.0,92,68,43,30.10,29.99,6,1,7,0.00
2012-5-3,75.0,69.6,66.0,71.0,67.1,64.0,97,92,76,30.14,30.03,6,1,9,0.79
2012-5-4,85.0,73.2,65.0,72.0,67.7,65.0,99,84,60,30.10,29.97,8,1,11,0.80
2012-5-5,87.0,75.1,65.0,72.0,66.6,-99.9,99,79,55,30.05,29.91,8,1,15,0.01
2012-5-6,90.0,76.2,68.0,71.0,65.7,61.0,95,73,42,30.01,29.88,7,1,10,0.01
2012-5-7,80.0,70.7,63.0,69.0,64.4,60.0,94,81,63,29.96,29.80,8,1,8,0.02
2012-5-8,82.0,71.7,63.0,71.0,64.5,61.0,100,80,56,29.94,29.84,7,1,7,0.00
2012-5-9,78.0,66.9,55.0,61.0,54.9,47.0,92,68,36,29.94,29.83,11,3,11,0.07
2012-5-10,78.0,65.6,50.0,54.0,49.5,46.0,90,59,36,30.00,29.90,8,1,11,0.07
2012-5-11,79.0,65.9,50.0,55.0,50.0,46.0,91,59,36,30.12,30.00,8,1,8,0.00
2012-5-12,80.0,70.2,64.0,65.0,57.2,-99.9,95,66,55,30.19,30.06,6,1,6,0.05
2012-5-13,69.0,66.0,64.0,69.0,65.7,64.0,100,99,95,30.09,29.92,3,0,7,0.21
2012-5-14,73.0,66.9,63.0,69.0,65.5,63.0,100,95,83,29.99,29.92,2,0,6,0.76
2012-5-15,81.0,70.0,61.0,66.0,61.1,56.0,97,76,49,30.01,29.94,7,2,11,0.18
2012-5-16,86.0,71.5,58.0,64.0,57.8,54.0,95,66,35,30.03,29.92,7,1,8,0.00
2012-5-17,88.0,73.5,58.0,64.0,58.2,55.0,95,63,34,30.00,29.91,6,1,8,0.00
2012-5-18,88.0,73.3,62.0,66.0,62.1,57.0,89,70,43,30.04,29.95,6,1,6,0.02
2012-5-19,87.0,74.2,65.0,65.0,60.2,-99.9,90,66,43,30.13,30.02,6,1,7,0.02
2012-5-20,88.0,75.0,62.0,66.0,61.2,58.0,93,65,39,30.14,30.01,6,1,8,0.00
2012-5-21,84.0,72.3,64.0,67.0,62.8,60.0,95,74,49,30.07,29.93,11,2,12,0.38
2012-5-22,80.0,68.9,61.0,66.0,61.2,56.0,98,79,51,29.96,29.85,8,1,11,0.50
2012-5-23,84.0,70.4,55.0,62.0,56.7,52.0,95,65,40,29.90,29.82,6,0,6,0.00
2012-5-24,89.0,76.2,63.0,67.0,61.2,55.0,80,62,40,29.93,29.84,8,2,9,0.00
2012-5-25,91.0,78.5,67.0,71.0,65.4,61.0,90,66,39,30.09,29.93,6,1,8,0.00
2012-5-26,94.0,80.0,66.0,73.0,65.2,61.0,96,65,35,30.16,30.05,5,0,8,0.00
2012-5-27,94.0,81.4,67.0,71.0,66.8,64.0,92,64,40,30.09,29.95,6,0,7,0.00
2012-5-28,92.0,81.5,73.0,69.0,66.5,65.0,76,62,42,30.02,29.87,5,0,7,0.00
2012-5-29,92.0,80.3,69.0,71.0,66.3,60.0,87,64,41,29.93,29.79,19,2,23,0.00
2012-5-30,94.0,78.5,62.0,69.0,60.1,42.0,95,59,17,29.89,29.80,9,1,11,0.00
2012-5-31,88.0,77.2,70.0,68.0,63.5,58.0,82,64,42,29.85,29.71,11,2,14,0.00
2012-6-1,75.0,67.5,55.0,65.0,57.4,50.0,93,72,52,29.94,29.73,10,3,10,0.09
2012-6-2,79.0,65.6,52.0,57.0,53.0,-99.9,94,68,45,30.01,29.89,8,1,9,0.09
2012-6-3,87.0,72.8,59.0,71.0,63.8,56.0,96,75,50,29.99,29.86,7,2,12,0.07
2012-6-4,79.0,71.2,67.0,70.0,67.7,66.0,99,89,70,29.94,29.77,8,1,9,0.52
2012-6-5,82.0,73.5,68.0,72.0,65.8,57.0,99,79,49,29.85,29.71,10,3,13,0.81
2012-6-6,83.0,72.3,62.0,60.0,55.9,54.0,78,58,39,29.98,29.82,10,5,12,0.29
2012-6-7,85.0,73.6,61.0,66.0,58.3,54.0,80,60,41,30.02,29.95,10,3,12,0.01
2012-6-8,88.0,75.9,63.0,63.0,58.3,54.0,83,56,35,30.05,29.94,9,1,9,0.01
2012-6-9,85.0,76.8,68.0,65.0,59.2,-99.9,78,58,41,30.04,29.92,6,1,7,0.00
2012-6-10,74.0,70.9,68.0,71.0,68.1,61.0,98,91,74,29.99,29.94,5,1,7,0.02
2012-6-11,86.0,75.4,69.0,76.0,71.1,66.0,100,88,64,30.01,29.87,9,2,11,0.42
2012-6-12,84.0,74.7,66.0,70.0,67.3,65.0,99,80,55,30.05,29.93,9,2,12,0.13
2012-6-13,89.0,77.7,65.0,68.0,61.9,58.0,87,61,37,30.03,29.93,9,3,10,0.00
2012-6-14,93.0,79.4,63.0,70.0,63.4,56.0,84,60,37,30.04,29.95,7,1,11,0.00
2012-6-15,89.0,79.1,69.0,69.0,66.9,63.0,93,68,48,30.13,30.01,6,1,7,0.00
2012-6-16,88.0,77.2,69.0,67.0,63.1,-99.9,87,65,44,30.20,30.06,7,1,8,0.00
2012-6-17,89.0,77.4,67.0,65.0,61.4,57.0,85,61,37,30.14,29.96,6,1,9,0.00
2012-6-18,89.0,77.7,66.0,68.0,63.1,60.0,84,63,41,30.06,29.96,8,1,9,0.00
2012-6-19,91.0,79.5,68.0,65.0,62.0,60.0,78,57,38,30.14,30.05,4,1,8,0.00
2012-6-20,91.0,80.2,67.0,65.0,63.0,60.0,79,58,38,30.15,30.03,7,1,10,0.00
2012-6-21,93.0,80.6,67.0,71.0,63.7,59.0,90,60,35,30.09,29.91,6,0,6,0.00
2012-6-22,96.0,83.3,69.0,69.0,64.0,58.0,85,55,29,29.96,29.85,7,1,8,0.00
2012-6-23,97.0,84.6,73.0,68.0,60.4,50.0,69,47,22,29.95,29.89,8,2,11,0.00
2012-6-24,99.0,84.6,68.0,69.0,60.2,52.0,71,47,23,29.95,29.83,8,1,8,0.00
2012-6-25,99.0,85.5,70.0,71.0,62.9,58.0,76,50,27,29.86,29.70,10,3,12,0.00
2012-6-26,93.0,81.9,71.0,64.0,53.1,39.0,64,41,16,29.87,29.76,12,5,16,0.00
2012-6-27,97.0,80.4,61.0,62.0,54.6,47.0,67,44,23,30.00,29.86,5,0,7,0.00
2012-6-28,102.0,84.4,66.0,66.0,56.9,46.0,81,46,15,30.06,29.96,6,1,7,0.00
2012-6-29,105.0,87.6,70.0,68.0,61.6,54.0,82,47,19,30.01,29.84,6,1,15,0.00
2012-6-30,103.0,91.9,74.0,70.0,65.3,58.0,81,45,23,29.94,29.85,6,1,7,0.00
2012-7-1,104.0,89.9,75.0,72.0,66.3,59.0,81,49,24,30.02,29.91,8,1,8,0.00
2012-7-2,96.0,84.3,75.0,70.0,67.3,64.0,78,58,38,30.11,29.97,7,2,10,0.00
2012-7-3,101.0,86.8,72.0,72.0,60.9,46.0,83,48,16,30.06,29.92,8,1,8,0.00
2012-7-4,101.0,84.8,73.0,73.0,66.3,60.0,92,58,26,30.05,29.93,7,1,13,0.15
2012-7-5,100.0,82.9,72.0,77.0,71.1,67.0,96,72,37,30.04,29.91,10,2,11,0.15
2012-7-6,101.0,84.2,70.0,73.0,68.2,61.0,93,63,29,30.01,29.90,7,1,10,0.04
2012-7-7,101.0,85.6,73.0,72.0,69.2,64.0,88,61,31,30.04,29.93,7,1,8,0.00
2012-7-8,99.0,80.9,74.0,74.0,70.9,66.0,96,74,41,30.05,29.92,8,1,10,0.54
2012-7-9,94.0,81.7,73.0,76.0,71.3,69.0,98,74,44,30.00,29.89,8,2,9,0.54
2012-7-10,95.0,79.1,71.0,74.0,70.6,65.0,96,78,38,30.03,29.90,14,2,20,0.01
2012-7-11,77.0,72.3,70.0,76.0,71.3,69.0,99,97,89,30.06,29.97,6,0,8,0.94
2012-7-12,76.0,71.8,70.0,74.0,71.3,70.0,100,99,90,30.05,29.98,3,0,4,1.57
2012-7-13,90.0,78.6,71.0,74.0,70.7,68.0,100,80,49,30.10,30.01,8,2,9,1.67
2012-7-14,89.0,78.6,73.0,76.0,72.9,71.0,96,84,58,30.14,30.02,8,1,9,0.09
2012-7-15,93.0,82.1,71.0,75.0,71.1,68.0,97,72,45,30.17,30.04,7,1,7,0.09
2012-7-16,96.0,82.2,73.0,75.0,72.1,69.0,93,73,45,30.10,29.97,11,1,12,0.00
2012-7-17,95.0,83.8,73.0,75.0,71.9,69.0,95,70,45,30.04,29.91,6,1,7,0.00
2012-7-18,91.0,78.6,73.0,76.0,72.6,68.0,97,83,57,30.06,29.96,10,1,10,0.15
2012-7-19,91.0,79.5,72.0,77.0,73.8,71.0,99,84,59,30.09,29.93,8,1,8,0.15
2012-7-20,89.0,80.9,72.0,76.0,74.0,70.0,96,81,64,30.01,29.91,8,3,12,0.01
2012-7-21,90.0,80.5,73.0,77.0,74.0,71.0,96,82,59,30.06,29.95,8,1,8,0.11
2012-7-22,88.0,79.7,72.0,74.0,72.0,70.0,95,79,61,30.16,30.06,8,2,11,0.07
2012-7-23,94.0,83.2,73.0,78.0,71.8,69.0,97,71,46,30.22,30.07,7,1,9,0.00
2012-7-24,95.0,83.5,73.0,78.0,72.4,71.0,96,72,46,30.12,29.97,9,2,10,0.00
2012-7-25,94.0,84.0,74.0,78.0,73.1,71.0,96,72,51,30.03,29.91,7,2,7,0.00
2012-7-26,95.0,84.4,74.0,76.0,73.0,71.0,95,71,48,29.98,29.84,9,3,11,0.00
2012-7-27,93.0,80.5,73.0,78.0,73.0,68.0,94,79,53,30.01,29.91,5,1,9,0.06
2012-7-28,95.0,80.1,69.0,78.0,72.5,68.0,98,80,46,30.07,29.96,8,1,10,0.06
2012-7-29,91.0,80.1,68.0,74.0,67.5,64.0,96,68,45,30.06,29.95,6,1,8,0.33
2012-7-30,93.0,81.0,70.0,72.0,69.0,64.0,90,69,49,30.02,29.88,7,1,7,0.00
2012-7-31,91.0,82.3,73.0,76.0,73.2,69.0,96,75,56,29.95,29.86,6,2,12,0.47
2012-8-1,97.0,84.6,75.0,79.0,72.8,68.0,97,71,40,29.95,29.85,8,1,12,0.47
2012-8-2,95.0,80.0,70.0,75.0,71.1,68.0,96,76,48,29.94,29.83,9,1,9,0.02
2012-8-3,87.0,79.4,73.0,77.0,74.5,70.0,94,86,68,29.98,29.88,7,2,11,0.01
2012-8-4,93.0,79.8,74.0,75.0,73.5,71.0,99,83,54,30.09,29.96,10,2,11,0.02
2012-8-5,89.0,79.3,73.0,76.0,73.8,72.0,99,85,63,30.17,30.05,8,2,9,2.07
2012-8-6,89.0,79.8,74.0,78.0,73.8,71.0,97,83,62,30.12,29.97,5,0,5,0.01
2012-8-7,90.0,81.8,74.0,76.0,73.8,71.0,95,78,60,30.01,29.92,5,0,5,0.25
2012-8-8,95.0,83.2,74.0,77.0,72.6,69.0,96,73,44,30.02,29.91,5,0,5,0.00
2012-8-9,87.0,78.9,73.0,76.0,72.0,68.0,94,80,54,29.96,29.81,9,1,10,0.00
2012-8-10,88.0,74.9,69.0,75.0,71.1,68.0,100,89,62,29.90,29.79,9,2,9,0.46
2012-8-11,85.0,74.2,64.0,71.0,62.2,-99.9,100,71,44,29.99,29.87,9,4,14,0.46
2012-8-12,86.0,73.3,57.0,66.0,59.2,55.0,96,65,40,30.06,29.98,6,1,7,0.04
2012-8-13,82.0,71.7,65.0,73.0,66.1,60.0,99,83,59,30.02,29.93,12,1,12,1.51
2012-8-14,88.0,77.3,69.0,75.0,69.5,66.0,98,79,49,29.95,29.87,7,1,9,1.51
2012-8-15,89.0,76.4,69.0,71.0,68.1,66.0,95,77,48,30.02,29.91,7,1,8,0.00
2012-8-16,91.0,79.2,68.0,74.0,69.9,67.0,98,76,50,30.05,29.90,7,1,8,0.00
2012-8-17,84.0,75.1,68.0,74.0,69.3,65.0,99,83,60,30.04,29.91,11,1,14,0.98
2012-8-18,83.0,75.4,70.0,72.0,68.8,66.0,96,81,60,29.95,29.85,6,1,7,1.05
2012-8-19,86.0,75.1,68.0,73.0,66.3,58.0,99,77,43,29.91,29.84,6,1,9,0.10
2012-8-20,86.0,74.5,62.0,64.0,58.7,56.0,91,60,37,29.97,29.91,8,2,8,0.68
2012-8-21,86.0,73.6,60.0,65.0,59.1,55.0,95,64,36,30.06,29.97,9,1,10,0.00
2012-8-22,89.0,74.1,59.0,68.0,59.9,57.0,97,66,36,30.12,30.04,6,1,7,0.00
2012-8-23,91.0,76.0,62.0,68.0,62.7,59.0,95,67,39,30.14,30.03,7,0,9,0.00
2012-8-24,91.0,77.2,65.0,70.0,64.0,60.0,93,67,37,30.12,30.01,5,0,7,0.00
2012-8-25,88.0,77.3,70.0,71.0,68.0,65.0,92,74,55,30.12,30.04,5,0,8,0.00
2012-8-26,92.0,78.3,67.0,74.0,66.5,63.0,98,71,40,30.16,30.03,6,0,8,0.01
2012-8-27,94.0,80.0,66.0,71.0,65.9,63.0,94,66,39,30.10,29.94,5,1,8,0.01
2012-8-28,87.0,80.2,74.0,72.0,68.4,64.0,81,68,59,29.98,29.90,6,1,7,0.00
2012-8-29,93.0,81.7,74.0,73.0,70.7,68.0,91,71,46,29.97,29.88,5,1,8,0.00
2012-8-30,83.0,79.3,76.0,73.0,72.0,70.0,88,79,68,30.09,29.90,7,2,9,0.00
2012-8-31,90.0,80.4,76.0,77.0,73.1,71.0,91,79,58,30.16,30.07,9,2,15,0.22
2012-9-1,87.0,79.4,74.0,76.0,73.3,72.0,95,83,64,30.16,30.02,10,3,10,0.22
2012-9-2,86.0,76.4,70.0,76.0,72.5,70.0,100,89,68,30.04,29.85,12,3,15,1.01
2012-9-3,80.0,74.2,70.0,76.0,72.9,70.0,100,96,85,29.93,29.84,7,1,9,1.01
2012-9-4,90.0,79.4,74.0,77.0,74.8,73.0,99,87,59,29.91,29.84,3,0,5,0.07
2012-9-5,90.0,80.2,72.0,76.0,73.7,69.0,97,82,57,29.96,29.82,12,2,12,0.07
2012-9-6,92.0,79.1,69.0,76.0,70.6,68.0,99,78,47,29.98,29.87,6,1,8,0.11
2012-9-7,93.0,81.3,70.0,77.0,70.9,68.0,97,73,47,29.97,29.79,5,1,9,0.00
2012-9-8,77.0,72.0,61.0,73.0,66.8,55.0,93,84,71,29.96,29.79,9,2,10,0.08
2012-9-9,82.0,67.7,55.0,60.0,56.6,53.0,95,71,43,30.05,29.93,8,2,10,0.08
2012-9-10,84.0,71.5,60.0,63.0,58.3,55.0,90,66,41,30.13,30.03,7,2,7,0.00
2012-9-11,85.0,71.5,57.0,65.0,59.5,55.0,96,69,42,30.20,30.10,6,0,7,0.00
2012-9-12,83.0,71.7,63.0,64.0,60.4,58.0,88,69,47,30.28,30.17,5,0,7,0.00
2012-9-13,84.0,72.3,63.0,64.0,60.2,58.0,88,68,45,30.27,30.16,6,1,7,0.00
2012-9-14,86.0,72.0,59.0,66.0,59.7,57.0,94,68,40,30.23,30.15,6,0,6,0.00
2012-9-15,88.0,74.1,62.0,66.0,61.5,59.0,91,67,41,30.19,30.08,6,0,7,0.00
2012-9-16,87.0,75.5,66.0,69.0,64.7,62.0,92,71,48,30.09,29.98,3,0,5,0.00
2012-9-17,82.0,72.6,68.0,72.0,68.5,67.0,99,88,62,30.01,29.73,7,1,10,3.71
2012-9-18,76.0,67.7,57.0,70.0,64.2,50.0,100,89,69,30.01,29.70,11,2,16,4.14
2012-9-19,77.0,62.0,48.0,54.0,49.6,46.0,94,67,36,30.12,30.01,10,2,10,0.25
2012-9-20,81.0,64.4,49.0,61.0,53.6,48.0,99,72,36,30.11,29.99,6,0,8,0.00
2012-9-21,82.0,67.1,54.0,63.0,56.7,53.0,98,73,42,30.08,29.93,6,1,7,0.00
2012-9-22,85.0,69.7,57.0,67.0,57.2,-99.9,97,70,34,30.10,29.96,7,1,10,0.00
2012-9-23,78.0,63.0,54.0,52.0,46.9,40.0,85,59,27,30.20,30.09,9,3,9,0.00
2012-9-24,78.0,61.4,48.0,51.0,46.4,42.0,85,61,30,30.24,30.10,8,1,8,0.00
2012-9-25,83.0,68.0,55.0,59.0,54.6,50.0,86,64,41,30.16,30.07,8,1,8,0.00
2012-9-26,85.0,71.1,60.0,63.0,58.8,54.0,91,68,44,30.18,30.09,8,1,10,0.00
2012-9-27,87.0,73.2,62.0,69.0,64.4,60.0,94,76,49,30.18,30.06,5,1,9,0.00
2012-9-28,88.0,73.7,64.0,71.0,65.9,63.0,98,79,48,30.10,29.98,8,1,8,0.00
2012-9-29,79.0,71.0,65.0,70.0,64.4,55.0,94,80,63,30.02,29.90,8,2,10,0.00
2012-9-30,71.0,64.7,58.0,63.0,59.0,54.0,97,82,71,29.92,29.72,7,2,10,0.32
2012-10-1,76.0,69.3,63.0,75.0,68.0,63.0,100,96,82,29.72,29.47,10,3,15,0.78
2012-10-2,66.0,61.6,56.0,64.0,59.9,55.0,99,94,81,29.98,29.63,6,0,9,0.84
2012-10-3,77.0,63.7,54.0,64.0,58.0,54.0,100,84,55,30.17,29.98,5,1,7,0.01
2012-10-4,83.0,67.8,59.0,64.0,59.9,57.0,96,79,48,30.27,30.17,5,0,6,0.01
2012-10-5,83.0,68.4,57.0,69.0,60.0,57.0,100,78,46,30.20,29.98,6,1,10,0.00
2012-10-6,64.0,56.7,51.0,62.0,53.1,46.0,95,88,73,30.10,29.96,10,4,13,0.05
2012-10-7,62.0,52.4,47.0,47.0,45.2,43.0,95,78,50,30.19,30.07,11,3,11,0.08
2012-10-8,60.0,51.2,43.0,54.0,46.7,42.0,98,85,66,30.20,30.10,9,2,9,0.03
2012-10-9,68.0,52.7,41.0,54.0,47.1,41.0,100,84,54,30.16,30.02,5,0,9,0.25
2012-10-10,74.0,59.9,48.0,60.0,54.0,47.0,98,82,60,30.20,30.05,8,2,9,0.00
2012-10-11,70.0,58.2,44.0,56.0,50.1,42.0,94,76,54,30.28,30.19,6,1,7,0.00
2012-10-12,72.0,64.5,59.0,70.0,62.0,55.0,99,92,75,30.29,30.17,7,1,9,1.29
2012-10-13,79.0,68.5,61.0,66.0,63.5,60.0,100,85,63,30.27,30.13,6,1,9,1.29
2012-10-14,77.0,69.6,64.0,68.0,63.6,58.0,97,81,65,30.16,29.92,10,4,15,0.18
2012-10-15,76.0,64.7,50.0,68.0,56.5,47.0,100,78,37,30.00,29.92,10,2,10,0.23
2012-10-16,76.0,59.5,46.0,58.0,51.5,45.0,100,78,47,30.01,29.85,4,0,6,0.01
2012-10-17,77.0,64.7,53.0,58.0,52.5,48.0,96,69,36,29.89,29.66,8,2,8,0.00
2012-10-18,68.0,60.8,51.0,62.0,53.8,43.0,99,80,41,29.82,29.65,10,2,16,0.60
2012-10-19,70.0,57.3,45.0,48.0,44.3,41.0,95,66,36,29.84,29.72,10,3,12,0.60
2012-10-20,69.0,54.6,42.0,52.0,46.3,41.0,98,76,50,29.99,29.84,8,1,8,0.00
2012-10-21,80.0,60.5,46.0,56.0,51.3,45.0,99,75,42,30.13,29.99,5,0,7,0.00
2012-10-22,83.0,67.3,58.0,58.0,53.8,51.0,79,64,36,30.19,30.08,6,1,6,0.00
2012-10-23,81.0,66.1,56.0,57.0,53.8,51.0,87,67,38,30.16,30.05,6,1,9,0.00
2012-10-24,81.0,66.4,55.0,58.0,55.2,52.0,91,70,44,30.16,30.03,6,1,6,0.00
2012-10-25,81.0,68.7,60.0,63.0,58.3,56.0,88,71,46,30.07,29.97,8,1,8,0.00
2012-10-26,81.0,65.0,50.0,66.0,57.4,47.0,96,78,54,30.04,29.92,10,2,14,0.00
2012-10-27,52.0,49.5,46.0,48.0,46.6,45.0,97,90,81,30.03,29.94,13,7,15,0.02
2012-10-28,61.0,51.7,46.0,46.0,41.3,35.0,87,69,44,30.03,29.91,13,7,14,0.02
2012-10-29,56.0,46.5,36.0,37.0,32.4,26.0,88,60,36,30.07,29.92,14,5,16,0.00
2012-10-30,58.0,47.3,40.0,33.0,31.3,29.0,70,55,34,29.92,29.79,12,3,14,0.00
2012-10-31,65.0,47.5,32.0,41.0,32.1,28.0,95,60,28,29.95,29.86,6,1,13,0.00
2012-11-1,67.0,47.5,30.0,39.0,31.8,27.0,93,60,25,30.04,29.94,5,0,8,0.00
2012-11-2,77.0,57.4,42.0,53.0,44.4,38.0,91,65,35,30.01,29.93,7,1,7,0.00
2012-11-3,83.0,63.8,46.0,60.0,49.3,39.0,92,62,36,30.08,29.92,7,1,12,0.11
2012-11-4,63.0,53.4,39.0,59.0,47.6,37.0,96,82,52,30.11,29.99,8,2,11,0.15
2012-11-5,61.0,48.6,38.0,44.0,41.2,36.0,97,77,52,30.10,29.96,10,2,15,0.05
2012-11-6,53.0,48.1,44.0,50.0,46.9,44.0,100,96,87,30.02,29.93,8,1,15,0.11
2012-11-7,54.0,46.2,40.0,49.0,44.2,39.0,99,93,73,30.11,29.91,8,2,9,0.33
2012-11-8,60.0,44.9,37.0,50.0,41.0,36.0,100,88,57,30.24,30.11,5,1,6,0.22
2012-11-9,69.0,50.0,35.0,50.0,42.0,35.0,100,78,44,30.29,30.16,4,0,7,0.01
2012-11-10,72.0,57.3,44.0,52.0,45.4,41.0,89,67,44,30.32,30.19,7,1,7,0.00
2012-11-11,72.0,61.2,50.0,53.0,47.6,41.0,72,62,42,30.29,30.14,11,3,13,0.00
2012-11-12,64.0,51.8,33.0,60.0,49.1,32.0,100,91,67,30.40,30.12,10,3,10,1.18
2012-11-13,55.0,41.5,32.0,36.0,32.6,30.0,99,73,46,30.46,30.33,13,3,13,0.82
2012-11-14,57.0,45.3,36.0,40.0,34.5,-99.9,84,68,50,30.37,30.26,8,3,8,0.00
2012-11-15,63.0,47.1,33.0,45.0,36.4,31.0,96,68,43,30.31,30.22,7,1,7,0.00
2012-11-16,65.0,49.8,40.0,42.0,35.6,33.0,81,60,34,30.34,30.26,8,4,10,0.00
2012-11-17,66.0,50.4,34.0,41.0,36.2,30.0,89,60,35,30.42,30.32,7,1,9,0.00
2012-11-18,68.0,51.3,36.0,40.0,36.0,31.0,84,59,33,30.41,30.28,5,0,9,0.00
2012-11-19,70.0,50.7,37.0,49.0,41.3,33.0,89,72,46,30.32,30.18,3,0,5,0.00
2012-11-20,71.0,55.2,42.0,52.0,45.2,41.0,98,72,44,30.20,30.08,3,0,4,0.00
2012-11-21,72.0,56.7,43.0,52.0,46.9,41.0,96,72,47,30.19,30.10,6,1,9,0.00
2012-11-22,72.0,53.8,39.0,52.0,44.5,38.0,98,74,42,30.24,30.14,5,0,5,0.00
2012-11-23,62.0,51.6,42.0,52.0,43.8,34.0,92,75,54,30.21,30.12,7,2,12,0.00
2012-11-24,48.0,38.0,29.0,35.0,26.8,23.0,81,65,45,30.30,30.16,8,2,11,0.00
2012-11-25,59.0,41.7,26.0,33.0,28.4,23.0,92,63,32,30.19,30.06,7,1,9,0.00
2012-11-26,66.0,52.9,38.0,52.0,41.3,28.0,88,66,45,30.18,30.08,5,0,6,0.04
2012-11-27,55.0,45.7,39.0,53.0,43.4,35.0,97,92,85,30.32,30.08,11,5,13,0.07
2012-11-28,55.0,41.9,36.0,38.0,33.6,29.0,92,74,47,30.44,30.32,8,1,8,0.13
2012-11-29,62.0,44.5,29.0,39.0,32.8,27.0,94,67,34,30.41,30.28,3,0,7,0.00
2012-11-30,65.0,51.4,40.0,49.0,42.9,32.0,95,74,52,30.34,30.21,8,1,10,0.00
2012-12-1,71.0,56.6,46.0,55.0,49.3,45.0,100,79,51,30.31,30.20,10,1,10,0.00
2012-12-2,74.0,61.4,54.0,54.0,50.1,47.0,81,68,47,30.30,30.20,11,2,14,0.00
2012-12-3,74.0,61.9,53.0,58.0,52.6,49.0,89,73,51,30.27,30.16,8,1,8,0.00
2012-12-4,70.0,63.3,57.0,63.0,58.4,55.0,99,84,71,30.24,30.14,9,3,13,0.06
2012-12-5,62.0,57.4,53.0,58.0,52.5,44.0,100,85,59,30.24,30.09,10,3,13,0.06
2012-12-6,69.0,58.3,51.0,57.0,49.1,-99.9,89,75,61,30.10,29.99,7,2,9,0.01
2012-12-7,64.0,58.5,53.0,58.0,53.0,46.0,92,82,72,30.03,29.92,7,3,8,0.00
2012-12-8,70.0,62.6,59.0,61.0,59.0,56.0,98,88,66,29.99,29.92,7,2,9,0.00
2012-12-9,71.0,65.1,62.0,62.0,59.7,57.0,97,83,64,30.01,29.81,11,4,14,0.00
2012-12-10,68.0,52.9,37.0,64.0,51.9,35.0,100,97,82,29.98,29.69,13,5,23,0.02
2012-12-11,44.0,36.8,33.0,36.0,32.3,29.0,94,84,66,30.22,29.97,9,4,10,1.17
2012-12-12,53.0,39.7,32.0,32.0,30.0,28.0,90,70,42,30.30,30.20,12,5,13,0.00
2012-12-13,61.0,42.0,31.0,39.0,30.3,26.0,89,67,29,30.37,30.26,7,1,8,0.00
2012-12-14,61.0,47.0,32.0,44.0,37.8,29.0,90,72,51,30.34,30.13,6,0,6,0.00
2012-12-15,65.0,55.9,48.0,58.0,49.0,40.0,97,78,62,30.17,29.93,11,3,16,0.18
2012-12-16,62.0,59.4,56.0,61.0,58.9,56.0,100,98,92,29.94,29.76,12,3,13,0.18
2012-12-17,63.0,57.6,49.0,60.0,55.9,46.0,100,95,81,29.82,29.64,9,3,10,1.60
2012-12-18,59.0,46.4,34.0,47.0,40.3,34.0,100,81,53,29.98,29.80,9,1,11,0.06
2012-12-19,68.0,54.8,43.0,49.0,44.0,39.0,93,69,43,30.06,29.91,6,1,8,0.00
2012-12-20,59.0,49.9,37.0,58.0,43.0,26.0,100,78,58,29.99,29.61,15,6,28,1.00
2012-12-21,47.0,37.3,29.0,26.0,23.0,19.0,69,57,39,30.27,29.99,14,5,15,1.00
2012-12-22,53.0,35.6,21.0,27.0,23.3,17.0,88,63,35,30.35,30.16,4,0,9,0.00
2012-12-23,55.0,46.1,37.0,49.0,37.2,27.0,99,72,53,30.16,29.91,6,1,11,0.45
2012-12-24,64.0,54.4,47.0,62.0,52.4,46.0,100,93,71,29.95,29.81,9,3,10,0.45
2012-12-25,53.0,49.2,47.0,53.0,48.9,46.0,100,99,91,29.99,29.45,13,6,22,0.17
2012-12-26,53.0,39.2,34.0,53.0,37.9,32.0,100,95,88,30.10,29.39,13,7,16,1.11
2012-12-27,38.0,34.2,30.0,34.0,31.3,28.0,96,89,82,30.16,30.08,9,3,11,0.15
2012-12-28,44.0,38.2,31.0,44.0,36.7,30.0,100,95,86,30.09,29.73,10,2,13,0.31
2012-12-29,43.0,36.7,32.0,43.0,34.8,28.0,100,93,84,30.34,29.80,10,5,11,0.31
2012-12-30,45.0,33.2,27.0,32.0,26.7,24.0,92,78,56,30.50,30.34,11,2,13,0.08
2012-12-31,50.0,42.4,30.0,44.0,33.5,28.0,92,72,55,30.36,30.03,6,1,10,0.00
2013-1-1,53.0,47.9,40.0,53.0,47.4,40.0,100,98,81,30.09,29.96,12,2,12,0.84